TimeCDT,TemperatureF,Dew PointF,Humidity,Sea Level PressureIn,VisibilityMPH,Wind Direction,Wind SpeedMPH,Gust SpeedMPH,PrecipitationIn,Events,Conditions,WindDirDegrees,DateUTC
12:15 AM,77.4,59.5,54,29.99,10.0,SSE,17.3,-,N/A,,Clear,160,2013-08-21 05:15:00
12:35 AM,77.4,59.5,54,29.99,10.0,SSE,18.4,-,N/A,,Clear,160,2013-08-21 05:35:00
12:55 AM,77.0,59.7,55,29.98,10.0,SSE,17.3,23.0,N/A,,Clear,160,2013-08-21 05:55:00
1:15 AM,76.1,59.9,57,29.99,10.0,SSE,16.1,-,N/A,,Clear,160,2013-08-21 06:15:00
1:35 AM,75.2,59.9,59,29.99,10.0,SSE,15.0,-,N/A,,Clear,160,2013-08-21 06:35:00
1:55 AM,74.3,60.1,61,29.98,10.0,SSE,16.1,-,N/A,,Clear,160,2013-08-21 06:55:00
2:15 AM,74.1,59.9,61,29.97,10.0,SSE,16.1,-,N/A,,Clear,160,2013-08-21 07:15:00
2:35 AM,73.4,60.1,63,29.97,10.0,SSE,15.0,-,N/A,,Clear,150,2013-08-21 07:35:00
2:55 AM,72.5,60.1,65,29.97,10.0,SSE,9.2,-,N/A,,Clear,160,2013-08-21 07:55:00
3:15 AM,72.1,59.9,65,29.97,10.0,Calm,Calm,-,N/A,,Clear,0,2013-08-21 08:15:00
3:35 AM,70.7,59.7,68,29.97,10.0,Calm,Calm,-,N/A,,Clear,0,2013-08-21 08:35:00
3:55 AM,71.1,59.7,67,29.97,10.0,Calm,Calm,-,N/A,,Clear,0,2013-08-21 08:55:00
4:15 AM,71.8,59.5,65,29.97,10.0,Calm,Calm,-,N/A,,Clear,0,2013-08-21 09:15:00
4:35 AM,71.8,59.5,65,29.97,10.0,South,3.5,-,N/A,,Clear,180,2013-08-21 09:35:00
4:55 AM,72.3,59.4,64,29.98,10.0,South,8.1,-,N/A,,Clear,180,2013-08-21 09:55:00
5:15 AM,69.8,59.4,69,29.98,10.0,SSW,8.1,-,N/A,,Clear,200,2013-08-21 10:15:00
5:35 AM,68.2,59.4,73,29.99,10.0,SSW,4.6,-,N/A,,Clear,200,2013-08-21 10:35:00
5:55 AM,66.7,59.0,76,29.99,10.0,SSW,6.9,-,N/A,,Clear,210,2013-08-21 10:55:00
6:15 AM,65.8,59.0,79,29.98,10.0,SSW,5.8,-,N/A,,Clear,200,2013-08-21 11:15:00
6:35 AM,64.4,58.5,81,29.98,10.0,South,6.9,-,N/A,,Clear,190,2013-08-21 11:35:00
6:55 AM,64.4,58.6,82,29.99,10.0,South,4.6,-,N/A,,Clear,190,2013-08-21 11:55:00
7:15 AM,64.0,58.5,82,29.99,10.0,SSW,4.6,-,N/A,,Clear,200,2013-08-21 12:15:00
7:35 AM,64.2,59.0,83,30.00,10.0,SSW,5.8,-,N/A,,Clear,210,2013-08-21 12:35:00
7:55 AM,66.4,60.1,80,30.00,10.0,South,3.5,-,N/A,,Clear,190,2013-08-21 12:55:00
8:15 AM,68.5,60.1,74,30.00,10.0,South,5.8,-,N/A,,Clear,170,2013-08-21 13:15:00
8:35 AM,71.2,60.1,68,30.00,10.0,South,8.1,-,N/A,,Clear,190,2013-08-21 13:35:00
8:55 AM,74.1,59.7,61,30.00,10.0,SSW,10.4,-,N/A,,Clear,200,2013-08-21 13:55:00
9:15 AM,76.8,59.0,54,30.00,10.0,SW,10.4,-,N/A,,Clear,220,2013-08-21 14:15:00
9:35 AM,78.3,58.5,50,30.00,10.0,SW,9.2,-,N/A,,Clear,230,2013-08-21 14:35:00
9:55 AM,80.6,57.4,45,30.00,10.0,SSW,6.9,-,N/A,,Clear,210,2013-08-21 14:55:00
10:15 AM,82.8,56.8,41,30.00,10.0,WSW,8.1,-,N/A,,Clear,240,2013-08-21 15:15:00
10:35 AM,84.2,56.7,39,29.99,10.0,SW,4.6,-,N/A,,Clear,230,2013-08-21 15:35:00
10:55 AM,85.3,55.8,36,30.00,10.0,West,3.5,-,N/A,,Clear,260,2013-08-21 15:55:00
11:15 AM,87.6,55.4,33,29.99,10.0,Calm,Calm,-,N/A,,Clear,0,2013-08-21 16:15:00
11:35 AM,89.6,54.1,30,29.99,10.0,SSW,5.8,-,N/A,,Clear,200,2013-08-21 16:35:00
11:55 AM,90.5,53.1,28,29.99,10.0,SW,4.6,-,N/A,,Clear,230,2013-08-21 16:55:00
12:15 PM,94.1,51.6,24,29.99,10.0,SE,8.1,-,N/A,,Clear,130,2013-08-21 17:15:00
12:35 PM,94.5,51.3,23,29.99,10.0,SSE,8.1,-,N/A,,Clear,160,2013-08-21 17:35:00
12:55 PM,95.7,50.7,22,29.98,10.0,South,5.8,-,N/A,,Clear,180,2013-08-21 17:55:00
1:15 PM,96.4,48.6,20,29.98,10.0,South,10.4,-,N/A,,Clear,180,2013-08-21 18:15:00
1:35 PM,98.4,47.3,18,29.97,10.0,SSE,9.2,-,N/A,,Clear,160,2013-08-21 18:35:00
1:55 PM,100.0,46.9,16,29.98,10.0,SSW,8.1,-,N/A,,Clear,210,2013-08-21 18:55:00
2:15 PM,99.7,48.4,18,29.97,10.0,SSE,13.8,-,N/A,,Clear,150,2013-08-21 19:15:00
2:35 PM,101.5,47.3,16,29.97,10.0,South,12.7,17.3,N/A,,Clear,170,2013-08-21 19:35:00
2:55 PM,99.7,46.8,17,29.97,10.0,South,9.2,18.4,N/A,,Clear,170,2013-08-21 19:55:00
3:15 PM,101.5,45.1,15,29.96,10.0,South,15.0,21.9,N/A,,Clear,170,2013-08-21 20:15:00
3:35 PM,102.2,45.7,15,29.96,10.0,South,10.4,24.2,N/A,,Clear,170,2013-08-21 20:35:00
3:55 PM,102.0,41.0,12,29.95,10.0,South,16.1,25.3,N/A,,Clear,180,2013-08-21 20:55:00
4:15 PM,98.4,42.8,15,29.95,10.0,South,17.3,23.0,N/A,,Clear,190,2013-08-21 21:15:00
4:35 PM,96.6,44.8,17,29.95,10.0,South,13.8,24.2,N/A,,Clear,190,2013-08-21 21:35:00
4:55 PM,97.2,43.5,16,29.94,10.0,South,12.7,17.3,N/A,,Clear,190,2013-08-21 21:55:00
5:15 PM,98.4,39.4,13,29.95,10.0,South,10.4,16.1,N/A,,Clear,190,2013-08-21 22:15:00
5:35 PM,97.7,43.5,16,29.94,10.0,SSE,9.2,18.4,N/A,,Clear,160,2013-08-21 22:35:00
5:55 PM,97.7,47.7,18,29.94,10.0,SSE,12.7,-,N/A,,Clear,150,2013-08-21 22:55:00
6:15 PM,99.3,44.4,15,29.93,10.0,SSE,16.1,-,N/A,,Clear,150,2013-08-21 23:15:00
6:35 PM,98.6,44.4,16,29.93,10.0,SSE,17.3,-,N/A,,Scattered Clouds,150,2013-08-21 23:35:00
6:55 PM,98.8,41.9,14,29.93,10.0,South,17.3,23.0,N/A,,Scattered Clouds,180,2013-08-21 23:55:00
7:15 PM,97.2,42.6,15,29.92,10.0,South,20.7,24.2,N/A,,Clear,180,2013-08-22 00:15:00
7:35 PM,96.8,45.9,17,29.92,10.0,South,19.6,26.5,N/A,,Clear,170,2013-08-22 00:35:00
7:55 PM,94.8,48.2,20,29.93,10.0,South,17.3,24.2,N/A,,Clear,180,2013-08-22 00:55:00
8:15 PM,92.7,48.7,22,29.94,10.0,South,16.1,23.0,N/A,,Clear,170,2013-08-22 01:15:00
8:35 PM,90.7,49.3,24,29.96,10.0,South,12.7,-,N/A,,Clear,170,2013-08-22 01:35:00
8:55 PM,88.3,50.2,27,29.96,10.0,SSE,12.7,-,N/A,,Clear,160,2013-08-22 01:55:00
9:15 PM,86.5,50.4,29,29.97,10.0,SSE,12.7,-,N/A,,Clear,160,2013-08-22 02:15:00
9:35 PM,85.3,50.7,30,29.98,10.0,SSE,11.5,-,N/A,,Clear,160,2013-08-22 02:35:00
9:55 PM,84.2,51.8,33,29.98,10.0,South,15.0,-,N/A,,Clear,170,2013-08-22 02:55:00
10:15 PM,82.6,52.9,36,29.98,10.0,SSE,13.8,-,N/A,,Clear,160,2013-08-22 03:15:00
10:35 PM,81.7,53.8,38,29.97,10.0,South,13.8,-,N/A,,Clear,170,2013-08-22 03:35:00
10:55 PM,80.8,54.5,40,29.97,10.0,South,16.1,-,N/A,,Clear,180,2013-08-22 03:55:00
11:15 PM,81.5,54.9,40,29.98,10.0,South,17.3,-,N/A,,Clear,180,2013-08-22 04:15:00
11:35 PM,80.8,55.4,42,29.98,10.0,South,18.4,23.0,N/A,,Clear,180,2013-08-22 04:35:00
11:55 PM,80.1,55.6,43,29.98,10.0,South,16.1,21.9,N/A,,Clear,180,2013-08-22 04:55:00